User: anonymous   Login
Location: Haulchin
(50.3172°N, 3.4360°E)
Time: 06:40:20
(UTC+00:00)
Language:

Cosmos 1408 - Orbit

View from above orbital plane
View from above orbital plane
View from above satellite
View from above satellite

Ground track
Ground track

The orbit data is extracted from the following two-line orbital elements,

1 13552U 82092A   24202.75067775  .00080743  00000-0  65919-3 0  9996
2 13552  82.5515 206.5613 0012911 188.4690 171.6357 15.70199560150747
Epoch (UTC): 20 July 2024 18:00:58
Eccentricity: 0.0012911
inclination: 82.5515°
perigee height: 349 km
apogee height: 367 km
right ascension of ascending node: 206.5613°
argument of perigee: 188.4690°
revolutions per day: 15.70199560
mean anomaly at epoch: 171.6357°
orbit number at epoch: 15074

The dashed part of the orbit path shows where the satellite is in the earth's shadow,  

DLR